QTR678 WAAA-OTHH

Flight info

Callsign QTR678
Flight time N/A
Altitude 35000
Route GURNI1B GURNI W35 PNK/N0479F360 N875 BOBOB M761 VPK G582 VBA B466 TOSOK/N0422F260 B466 MMV/N0471F380 P574 OPAMO/N0400F240 W48 BBM/N0470F380 P574 LOSIM/N0467F400 P574 MIXAM P899 ITRAX/N0457F340 P899 UMIBU DCT
Aircraft A339/H-V/N

Departure

Time 2026-05-07 06:19
Airport Sultan Hasanuddin International Airport (WAAA)

Arrival

Time N/A
Airport Hamad International Airport (OTHH)
Time Latitude Longitude Altitude Speed Heading
2026-05-07 05:48 -5.07761 119.54745 47 ft 0 kts 300°
2026-05-07 06:07 -5.07763 119.54748 47 ft 2 kts 300°
2026-05-07 06:07 -5.07770 119.54760 45 ft 2 kts 300°
2026-05-07 06:08 -5.07777 119.54772 45 ft 2 kts 300°
2026-05-07 06:08 -5.07784 119.54784 44 ft 2 kts 300°
2026-05-07 06:08 -5.07791 119.54797 43 ft 2 kts 314°
2026-05-07 06:08 -5.07801 119.54808 44 ft 2 kts 344°
2026-05-07 06:09 -5.07815 119.54812 43 ft 2 kts 14°
2026-05-07 06:09 -5.07828 119.54808 44 ft 2 kts 27°
2026-05-07 06:09 -5.07835 119.54805 42 ft 0 kts 27°
2026-05-07 06:12 -5.07820 119.54817 42 ft 6 kts 33°
2026-05-07 06:12 -5.07766 119.54845 47 ft 11 kts 29°
2026-05-07 06:12 -5.07696 119.54885 47 ft 12 kts 31°
2026-05-07 06:13 -5.07626 119.54926 47 ft 12 kts 29°
2026-05-07 06:13 -5.07588 119.54991 47 ft 11 kts 80°
2026-05-07 06:13 -5.07609 119.55062 47 ft 11 kts 115°
2026-05-07 06:13 -5.07603 119.55128 44 ft 10 kts 55°
2026-05-07 06:14 -5.07549 119.55168 47 ft 10 kts 33°
2026-05-07 06:14 -5.07491 119.55202 47 ft 10 kts 30°
2026-05-07 06:14 -5.07431 119.55237 47 ft 10 kts 30°
2026-05-07 06:14 -5.07371 119.55272 47 ft 10 kts 30°
2026-05-07 06:15 -5.07306 119.55309 47 ft 12 kts 30°
2026-05-07 06:15 -5.07226 119.55355 45 ft 15 kts 30°
2026-05-07 06:15 -5.07131 119.55409 47 ft 17 kts 30°
2026-05-07 06:15 -5.07024 119.55470 47 ft 19 kts 29°
2026-05-07 06:16 -5.06906 119.55539 46 ft 21 kts 30°
2026-05-07 06:16 -5.06787 119.55607 47 ft 17 kts 30°
2026-05-07 06:16 -5.06689 119.55663 47 ft 15 kts 30°
2026-05-07 06:16 -5.06671 119.55744 46 ft 11 kts 116°
2026-05-07 06:17 -5.06679 119.55753 47 ft 0 kts 126°
2026-05-07 06:17 -5.06687 119.55764 47 ft 6 kts 126°
2026-05-07 06:17 -5.06733 119.55817 47 ft 12 kts 146°
2026-05-07 06:18 -5.06809 119.55798 47 ft 11 kts 206°
2026-05-07 06:18 -5.06880 119.55760 47 ft 13 kts 208°
2026-05-07 06:18 -5.07129 119.55616 45 ft 78 kts 211°
2026-05-07 06:18 -5.07805 119.55225 48 ft 143 kts 209°
2026-05-07 06:19 -5.08804 119.54646 54 ft 190 kts 211°
2026-05-07 06:19 -5.09973 119.53978 520 ft 204 kts 210°
2026-05-07 06:19 -5.11206 119.53198 1115 ft 207 kts 213°
2026-05-07 06:19 -5.12385 119.52484 2005 ft 194 kts 214°
2026-05-07 06:20 -5.13316 119.51450 2312 ft 211 kts 243°
2026-05-07 06:20 -5.13766 119.49996 2554 ft 229 kts 261°
2026-05-07 06:20 -5.13872 119.48337 2736 ft 248 kts 270°
2026-05-07 06:20 -5.13825 119.46549 3005 ft 261 kts 272°
2026-05-07 06:21 -5.13751 119.44678 3250 ft 275 kts 272°
2026-05-07 06:21 -5.13700 119.42749 3706 ft 279 kts 271°
2026-05-07 06:21 -5.13681 119.40797 4239 ft 281 kts 270°
2026-05-07 06:21 -5.13680 119.38828 4762 ft 285 kts 270°
2026-05-07 06:22 -5.13683 119.36829 5202 ft 288 kts 270°
2026-05-07 06:22 -5.13693 119.32777 6175 ft 294 kts 270°
2026-05-07 06:22 -5.13697 119.30721 6680 ft 294 kts 270°
2026-05-07 06:23 -5.13699 119.28660 7163 ft 295 kts 270°
2026-05-07 06:23 -5.13701 119.26620 7660 ft 296 kts 270°
2026-05-07 06:23 -5.13702 119.24549 8140 ft 298 kts 270°
2026-05-07 06:23 -5.13703 119.22464 8619 ft 299 kts 270°
2026-05-07 06:24 -5.13704 119.20373 9117 ft 301 kts 270°
2026-05-07 06:24 -5.13705 119.18266 9603 ft 302 kts 270°
2026-05-07 06:24 -5.13705 119.16154 10053 ft 304 kts 270°
2026-05-07 06:24 -5.13705 119.13991 10222 ft 317 kts 270°
2026-05-07 06:25 -5.13705 119.11729 10347 ft 331 kts 270°
2026-05-07 06:25 -5.13704 119.09373 10468 ft 345 kts 270°
2026-05-07 06:25 -5.13704 119.06930 10646 ft 355 kts 270°
2026-05-07 06:25 -5.13703 119.04441 11030 ft 358 kts 270°
2026-05-07 06:26 -5.13702 119.01939 11434 ft 360 kts 270°
2026-05-07 06:26 -5.13701 118.99419 11834 ft 362 kts 270°
2026-05-07 06:26 -5.13699 118.96884 12248 ft 364 kts 270°
2026-05-07 06:26 -5.13698 118.94337 12637 ft 367 kts 270°
2026-05-07 06:27 -5.13696 118.91766 13030 ft 370 kts 270°
2026-05-07 06:27 -5.13695 118.89185 13419 ft 372 kts 270°
2026-05-07 06:27 -5.13693 118.86586 13829 ft 373 kts 270°
2026-05-07 06:27 -5.13614 118.83980 14156 ft 375 kts 277°
2026-05-07 06:28 -5.12950 118.81455 14486 ft 376 kts 293°
2026-05-07 06:28 -5.11640 118.79188 14840 ft 377 kts 308°
2026-05-07 06:28 -5.10064 118.77117 15168 ft 379 kts 307°
2026-05-07 06:28 -5.08472 118.74995 15501 ft 382 kts 307°
2026-05-07 06:29 -5.06884 118.72854 15823 ft 384 kts 307°
2026-05-07 06:29 -5.05291 118.70693 16154 ft 386 kts 307°
2026-05-07 06:29 -5.03691 118.68517 16504 ft 387 kts 307°
2026-05-07 06:29 -5.02086 118.66334 16816 ft 390 kts 307°
2026-05-07 06:30 -5.00471 118.64136 17140 ft 392 kts 307°
2026-05-07 06:30 -4.98845 118.61926 17461 ft 395 kts 307°
2026-05-07 06:30 -4.97211 118.59702 17771 ft 397 kts 306°
2026-05-07 06:30 -4.95570 118.57471 18112 ft 398 kts 306°
2026-05-07 06:31 -4.93922 118.55231 18401 ft 400 kts 307°
2026-05-07 06:31 -4.92286 118.53007 18687 ft 402 kts 307°
2026-05-07 06:31 -4.90603 118.50720 18994 ft 403 kts 307°
2026-05-07 06:31 -4.88955 118.48480 19265 ft 405 kts 307°
2026-05-07 06:32 -4.87281 118.46204 19569 ft 406 kts 307°
2026-05-07 06:32 -4.85596 118.43915 19850 ft 408 kts 307°
2026-05-07 06:32 -4.83908 118.41620 20140 ft 410 kts 307°
2026-05-07 06:32 -4.82208 118.39312 20436 ft 411 kts 307°
2026-05-07 06:33 -4.80505 118.37000 20743 ft 412 kts 307°